| time (UTC) | temp F | wind direction | speed MPH | gust MPH | rain 1hr in | rain 24hr in | rain mn in | humidity % | barometer mb |
| 20260905214216 | 85 | 224 | 11.0 | 27.0 | 0.00 | 0.00 | 0.00 | 13 | 1019.7 |
| 20260905213217 | 85 | 204 | 9.0 | 16.0 | 0.00 | 0.00 | 0.00 | 14 | 1019.6 |
| 20260905212236 | 84 | 166 | 9.0 | 15.0 | 0.00 | 0.00 | 0.00 | 13 | 1019.6 |
| 20260905211216 | 83 | 154 | 7.0 | 16.0 | 0.00 | 0.00 | 0.00 | 21 | 1019.9 |
| 20260905210216 | 83 | 155 | 8.0 | 14.0 | 0.00 | 0.00 | 0.00 | 21 | 1019.9 |
| 20260905205216 | 83 | 159 | 6.0 | 10.0 | 0.00 | 0.00 | 0.00 | 22 | 1020.0 |
| 20260905204236 | 82 | 167 | 9.0 | 13.0 | 0.00 | 0.00 | 0.00 | 19 | 1019.4 |
| 20260905203216 | 82 | 183 | 6.0 | 11.0 | 0.00 | 0.00 | 0.00 | 23 | 1020.0 |
| 20260905202216 | 81 | 158 | 7.0 | 15.0 | 0.00 | 0.00 | 0.00 | 23 | 1019.9 |
| 20260905201216 | 81 | 158 | 9.0 | 14.0 | 0.00 | 0.00 | 0.00 | 23 | 1020.1 |
| 20260905200216 | 81 | 107 | 5.0 | 12.0 | 0.00 | 0.00 | 0.00 | 23 | 1020.1 |
| 20260905195236 | 81 | 162 | 7.0 | 18.0 | 0.00 | 0.00 | 0.00 | 23 | 1020.0 |
| 20260905194216 | 81 | 151 | 8.0 | 14.0 | 0.00 | 0.00 | 0.00 | 25 | 1020.3 |
| 20260905193216 | 80 | 104 | 8.0 | 16.0 | 0.00 | 0.00 | 0.00 | 25 | 1020.0 |
| 20260905192236 | 80 | 118 | 8.0 | 17.0 | 0.00 | 0.00 | 0.00 | 25 | 1020.2 |
| 20260905191216 | 79 | 93 | 15.0 | 25.0 | 0.00 | 0.00 | 0.00 | 26 | 1020.4 |
| 20260905190236 | 79 | 149 | 10.0 | 19.0 | 0.00 | 0.00 | 0.00 | 24 | 1020.6 |
| 20260905185216 | 79 | 142 | 13.0 | 18.0 | 0.00 | 0.00 | 0.00 | 25 | 1020.5 |
| 20260905184216 | 79 | 102 | 11.0 | 17.0 | 0.00 | 0.00 | 0.00 | 25 | 1021.1 |
| 20260905183216 | 79 | 135 | 9.0 | 19.0 | 0.00 | 0.00 | 0.00 | 25 | 1021.1 |
| 20260905182216 | 78 | 168 | 7.0 | 12.0 | 0.00 | 0.00 | 0.00 | 26 | 1021.2 |
| 20260905181216 | 78 | 153 | 11.0 | 18.0 | 0.00 | 0.00 | 0.00 | 26 | 1021.2 |
| 20260905180216 | 79 | 187 | 12.0 | 20.0 | 0.00 | 0.00 | 0.00 | 19 | 1021.5 |
| 20260905175216 | 78 | 180 | 10.0 | 18.0 | 0.00 | 0.00 | 0.00 | 21 | 1021.0 |
| 20260905174216 | 77 | 122 | 10.0 | 19.0 | 0.00 | 0.00 | 0.00 | 28 | 1021.0 |
| 20260905173216 | 77 | 178 | 11.0 | 19.0 | 0.00 | 0.00 | 0.00 | 22 | 1021.1 |
| 20260905172216 | 77 | 182 | 4.0 | 11.0 | 0.00 | 0.00 | 0.00 | 28 | 1021.2 |
| 20260905171236 | 77 | 202 | 5.0 | 9.0 | 0.00 | 0.00 | 0.00 | 29 | 1021.4 |
| 20260905170216 | 78 | 173 | 8.0 | 11.0 | 0.00 | 0.00 | 0.00 | 21 | 1021.6 |
| 20260905165216 | 78 | 178 | 8.0 | 19.0 | 0.00 | 0.00 | 0.00 | 21 | 1021.6 |
| 20260905164216 | 76 | 188 | 10.0 | 15.0 | 0.00 | 0.00 | 0.00 | 27 | 1021.1 |
| 20260905163216 | 76 | 177 | 8.0 | 17.0 | 0.00 | 0.00 | 0.00 | 21 | 1021.0 |
| 20260905162216 | 75 | 189 | 7.0 | 13.0 | 0.00 | 0.00 | 0.00 | 25 | 1020.9 |
| 20260905161215 | 74 | 75 | 4.0 | 5.0 | 0.00 | 0.00 | 0.00 | 40 | 1021.3 |
| 20260905160216 | 72 | 1 | 3.0 | 5.0 | 0.00 | 0.00 | 0.00 | 38 | 1020.8 |
| 20260905155216 | 71 | 64 | 7.0 | 10.0 | 0.00 | 0.00 | 0.00 | 42 | 1020.5 |
| 20260905154215 | 71 | 56 | 5.0 | 10.0 | 0.00 | 0.00 | 0.00 | 41 | 1020.8 |
| 20260905153236 | 71 | 72 | 6.0 | 8.0 | 0.00 | 0.00 | 0.00 | 45 | 1020.9 |
| 20260905152216 | 71 | 59 | 4.0 | 8.0 | 0.00 | 0.00 | 0.00 | 45 | 1021.1 |
| 20260905151215 | 72 | 103 | 1.0 | 3.0 | 0.00 | 0.00 | 0.00 | 37 | 1021.3 |
| 20260905150215 | 72 | 108 | 2.0 | 4.0 | 0.00 | 0.00 | 0.00 | 35 | 1021.1 |
| 20260905145216 | 72 | 109 | 3.0 | 3.0 | 0.00 | 0.00 | 0.00 | 34 | 1021.1 |
| 20260905144236 | 72 | 109 | 2.0 | 2.0 | 0.00 | 0.00 | 0.00 | 34 | 1021.5 |
| 20260905143216 | 71 | 109 | 1.0 | 2.0 | 0.00 | 0.00 | 0.00 | 34 | 1021.2 |
| 20260905142216 | 69 | 0.0 | 0.0 | 0.00 | 0.00 | 0.00 | 37 | 1020.7 | |
| 20260905141216 | 68 | 109 | 0.0 | 1.0 | 0.00 | 0.00 | 0.00 | 39 | 1020.7 |
| 20260905140215 | 68 | 0.0 | 0.0 | 0.00 | 0.00 | 0.00 | 39 | 1020.5 | |
| 20260905135215 | 67 | 110 | 0.0 | 2.0 | 0.00 | 0.00 | 0.00 | 40 | 1020.6 |
| 20260905134215 | 66 | 98 | 1.0 | 3.0 | 0.00 | 0.00 | 0.00 | 41 | 1020.5 |
| 20260905133235 | 64 | 98 | 1.0 | 3.0 | 0.00 | 0.00 | 0.00 | 36 | 1019.8 |
| 20260905132215 | 64 | 98 | 3.0 | 4.0 | 0.00 | 0.00 | 0.00 | 31 | 1019.7 |
| 20260905131215 | 64 | 98 | 0.0 | 1.0 | 0.00 | 0.00 | 0.00 | 30 | 1019.9 |
| 20260905130215 | 65 | 98 | 0.0 | 2.0 | 0.00 | 0.00 | 0.00 | 30 | 1019.7 |
| 20260905125215 | 67 | 98 | 1.0 | 2.0 | 0.00 | 0.00 | 0.00 | 27 | 1020.0 |
| 20260905124215 | 67 | 98 | 2.0 | 4.0 | 0.00 | 0.00 | 0.00 | 27 | 1019.9 |
| 20260905123215 | 65 | 56 | 4.0 | 6.0 | 0.00 | 0.00 | 0.00 | 28 | 1019.4 |
| 20260905122215 | 66 | 0 | 3.0 | 5.0 | 0.00 | 0.00 | 0.00 | 28 | 1019.7 |
| 20260905121215 | 66 | 325 | 3.0 | 4.0 | 0.00 | 0.00 | 0.00 | 27 | 1019.5 |
| 20260905120215 | 66 | 341 | 5.0 | 6.0 | 0.00 | 0.00 | 0.00 | 28 | 1019.5 |
| 20260905115215 | 67 | 242 | 1.0 | 1.0 | 0.00 | 0.00 | 0.00 | 27 | 1019.4 |
| 20260905114215 | 67 | 242 | 3.0 | 3.0 | 0.00 | 0.00 | 0.00 | 27 | 1019.8 |
| 20260905113215 | 68 | 236 | 2.0 | 3.0 | 0.00 | 0.00 | 0.00 | 27 | 1019.8 |
| 20260905112215 | 69 | 251 | 2.0 | 3.0 | 0.00 | 0.00 | 0.00 | 26 | 1020.1 |
| 20260905111215 | 69 | 230 | 3.0 | 4.0 | 0.00 | 0.00 | 0.00 | 25 | 1020.0 |
| 20260905110215 | 70 | 193 | 5.0 | 9.0 | 0.00 | 0.00 | 0.00 | 25 | 1019.9 |
| 20260905105215 | 70 | 195 | 6.0 | 8.0 | 0.00 | 0.00 | 0.00 | 25 | 1020.0 |
| 20260905104215 | 70 | 193 | 6.0 | 10.0 | 0.00 | 0.00 | 0.00 | 25 | 1020.1 |
| 20260905103215 | 70 | 182 | 5.0 | 9.0 | 0.00 | 0.00 | 0.00 | 25 | 1019.9 |
| 20260905102215 | 71 | 184 | 8.0 | 12.0 | 0.00 | 0.00 | 0.00 | 25 | 1019.8 |
| 20260905101215 | 71 | 204 | 4.0 | 6.0 | 0.00 | 0.00 | 0.00 | 25 | 1019.9 |
| 20260905100235 | 72 | 201 | 5.0 | 9.0 | 0.00 | 0.00 | 0.00 | 25 | 1020.0 |
| 20260905095215 | 72 | 189 | 7.0 | 11.0 | 0.00 | 0.00 | 0.00 | 26 | 1020.1 |
| 20260905094217 | 72 | 186 | 3.0 | 9.0 | 0.00 | 0.00 | 0.00 | 27 | 1019.7 |
| 20260905093216 | 72 | 182 | 6.0 | 10.0 | 0.00 | 0.00 | 0.00 | 28 | 1019.7 |
| 20260905092217 | 72 | 164 | 8.0 | 14.0 | 0.00 | 0.00 | 0.00 | 29 | 1019.7 |
| 20260905091215 | 72 | 160 | 4.0 | 8.0 | 0.00 | 0.00 | 0.00 | 30 | 1019.7 |
| 20260905090237 | 73 | 159 | 5.0 | 11.0 | 0.00 | 0.00 | 0.00 | 30 | 1019.9 |
| 20260905085217 | 73 | 192 | 6.0 | 10.0 | 0.00 | 0.00 | 0.00 | 30 | 1020.0 |
| 20260905084217 | 73 | 192 | 5.0 | 6.0 | 0.00 | 0.00 | 0.00 | 30 | 1019.8 |
| 20260905083217 | 73 | 179 | 9.0 | 17.0 | 0.00 | 0.00 | 0.00 | 30 | 1019.7 |
| 20260905082216 | 74 | 190 | 8.0 | 16.0 | 0.00 | 0.00 | 0.00 | 29 | 1019.7 |
| 20260905081216 | 74 | 174 | 4.0 | 10.0 | 0.00 | 0.00 | 0.00 | 30 | 1019.4 |
| 20260905080216 | 74 | 192 | 6.0 | 10.0 | 0.00 | 0.00 | 0.00 | 30 | 1019.4 |
| 20260905075217 | 74 | 190 | 4.0 | 8.0 | 0.00 | 0.00 | 0.00 | 30 | 1019.2 |
| 20260905074216 | 73 | 192 | 7.0 | 13.0 | 0.00 | 0.00 | 0.00 | 30 | 1019.2 |
| 20260905073257 | 73 | 190 | 6.0 | 11.0 | 0.00 | 0.00 | 0.00 | 31 | 1019.0 |
| 20260905072236 | 73 | 211 | 6.0 | 8.0 | 0.00 | 0.00 | 0.00 | 31 | 1018.9 |
| 20260905071237 | 73 | 224 | 5.0 | 7.0 | 0.00 | 0.00 | 0.00 | 30 | 1018.3 |
| 20260905070216 | 73 | 191 | 6.0 | 11.0 | 0.00 | 0.00 | 0.00 | 31 | 1018.4 |
| 20260905065216 | 74 | 201 | 4.0 | 8.0 | 0.00 | 0.00 | 0.00 | 31 | 1018.6 |
| 20260905064216 | 74 | 194 | 3.0 | 5.0 | 0.00 | 0.00 | 0.00 | 30 | 1018.0 |
| 20260905063236 | 75 | 198 | 5.0 | 10.0 | 0.00 | 0.00 | 0.00 | 29 | 1017.8 |
| 20260905062216 | 75 | 188 | 5.0 | 12.0 | 0.00 | 0.00 | 0.00 | 29 | 1017.6 |
| 20260905060216 | 75 | 200 | 11.0 | 16.0 | 0.00 | 0.00 | 0.00 | 29 | 1017.3 |
| 20260905055216 | 75 | 191 | 5.0 | 10.0 | 0.00 | 0.00 | 0.00 | 29 | 1017.2 |
| 20260905054215 | 75 | 177 | 8.0 | 16.0 | 0.00 | 0.00 | 0.00 | 29 | 1016.9 |
| 20260905053216 | 76 | 183 | 7.0 | 11.0 | 0.00 | 0.00 | 0.00 | 29 | 1017.3 |
| 20260905052216 | 75 | 191 | 11.0 | 17.0 | 0.00 | 0.00 | 0.00 | 28 | 1016.9 |
| 20260905051216 | 76 | 195 | 3.0 | 6.0 | 0.00 | 0.00 | 0.00 | 27 | 1016.9 |
| 20260905050215 | 76 | 210 | 5.0 | 10.0 | 0.00 | 0.00 | 0.00 | 27 | 1016.8 |
| 20260905045236 | 76 | 202 | 7.0 | 13.0 | 0.00 | 0.00 | 0.00 | 26 | 1016.8 |
| 20260905044215 | 76 | 195 | 4.0 | 11.0 | 0.00 | 0.00 | 0.00 | 26 | 1016.7 |
| 20260905043215 | 77 | 202 | 7.0 | 10.0 | 0.00 | 0.00 | 0.00 | 26 | 1017.0 |
| 20260905042235 | 76 | 186 | 9.0 | 17.0 | 0.00 | 0.00 | 0.00 | 26 | 1016.7 |
| 20260905041215 | 75 | 200 | 3.0 | 9.0 | 0.00 | 0.00 | 0.00 | 26 | 1016.4 |
| 20260905040215 | 75 | 190 | 2.0 | 4.0 | 0.00 | 0.00 | 0.00 | 26 | 1016.4 |
| 20260905035215 | 75 | 198 | 3.0 | 5.0 | 0.00 | 0.00 | 0.00 | 26 | 1016.1 |
| 20260905034215 | 76 | 174 | 2.0 | 5.0 | 0.00 | 0.00 | 0.00 | 25 | 1015.6 |
| 20260905033215 | 76 | 196 | 4.0 | 6.0 | 0.00 | 0.00 | 0.00 | 25 | 1015.7 |
| 20260905032215 | 76 | 186 | 3.0 | 6.0 | 0.00 | 0.00 | 0.00 | 25 | 1015.5 |
| 20260905031215 | 77 | 198 | 4.0 | 7.0 | 0.00 | 0.00 | 0.00 | 25 | 1015.4 |
| 20260905030235 | 77 | 208 | 6.0 | 8.0 | 0.00 | 0.00 | 0.00 | 25 | 1015.4 |
| 20260905025235 | 78 | 200 | 2.0 | 4.0 | 0.00 | 0.00 | 0.00 | 26 | 1015.5 |
| 20260905024215 | 79 | 188 | 6.0 | 8.0 | 0.00 | 0.00 | 0.00 | 25 | 1015.2 |
| 20260905023215 | 79 | 196 | 8.0 | 9.0 | 0.00 | 0.00 | 0.00 | 25 | 1015.1 |
| 20260905022235 | 79 | 215 | 5.0 | 7.0 | 0.00 | 0.00 | 0.00 | 25 | 1015.0 |
| 20260905021215 | 80 | 201 | 7.0 | 12.0 | 0.00 | 0.00 | 0.00 | 24 | 1014.6 |
| 20260905020215 | 80 | 179 | 7.0 | 10.0 | 0.00 | 0.00 | 0.00 | 25 | 1014.4 |
| 20260905015215 | 81 | 179 | 6.0 | 13.0 | 0.00 | 0.00 | 0.00 | 24 | 1014.7 |
| 20260905014215 | 81 | 178 | 5.0 | 12.0 | 0.00 | 0.00 | 0.00 | 24 | 1014.4 |
| 20260905013215 | 82 | 190 | 9.0 | 17.0 | 0.00 | 0.00 | 0.00 | 23 | 1014.4 |
| 20260905012215 | 82 | 182 | 10.0 | 20.0 | 0.00 | 0.00 | 0.00 | 23 | 1014.4 |
| 20260905011215 | 83 | 199 | 8.0 | 14.0 | 0.00 | 0.00 | 0.00 | 23 | 1014.6 |
| 20260905010215 | 83 | 191 | 14.0 | 22.0 | 0.00 | 0.00 | 0.00 | 23 | 1014.6 |
| 20260905005215 | 83 | 187 | 10.0 | 21.0 | 0.00 | 0.00 | 0.00 | 23 | 1014.7 |
| 20260905004215 | 84 | 214 | 12.0 | 23.0 | 0.00 | 0.00 | 0.00 | 22 | 1015.0 |
| 20260905003215 | 84 | 204 | 15.0 | 24.0 | 0.00 | 0.00 | 0.00 | 22 | 1015.0 |
| 20260905002215 | 84 | 202 | 13.0 | 22.0 | 0.00 | 0.00 | 0.00 | 22 | 1015.1 |
| 20260905001215 | 84 | 200 | 13.0 | 25.0 | 0.00 | 0.00 | 0.00 | 21 | 1015.1 |
| 20260905000218 | 84 | 193 | 15.0 | 22.0 | 0.00 | 0.00 | 0.00 | 21 | 1015.1 |
| 20260904235315 | 84 | 198 | 12.0 | 24.0 | 0.00 | 0.00 | 0.00 | 21 | 1015.0 |
| 20260904234216 | 84 | 194 | 17.0 | 24.0 | 0.00 | 0.00 | 0.00 | 20 | 1014.7 |
| 20260904233217 | 85 | 201 | 16.0 | 25.0 | 0.00 | 0.00 | 0.00 | 20 | 1014.9 |
| 20260904232215 | 85 | 196 | 14.0 | 24.0 | 0.00 | 0.00 | 0.00 | 19 | 1014.8 |
| 20260904231237 | 85 | 188 | 16.0 | 24.0 | 0.00 | 0.00 | 0.00 | 19 | 1015.3 |
| 20260904230216 | 85 | 189 | 14.0 | 26.0 | 0.00 | 0.00 | 0.00 | 19 | 1015.2 |
| 20260904225217 | 84 | 198 | 14.0 | 22.0 | 0.00 | 0.00 | 0.00 | 18 | 1015.3 |
| 20260904224217 | 85 | 216 | 16.0 | 21.0 | 0.00 | 0.00 | 0.00 | 18 | 1015.7 |
| 20260904223217 | 85 | 193 | 16.0 | 28.0 | 0.00 | 0.00 | 0.00 | 18 | 1015.7 |
| 20260904222217 | 85 | 200 | 13.0 | 22.0 | 0.00 | 0.00 | 0.00 | 18 | 1015.8 |
| 20260904221217 | 84 | 195 | 17.0 | 24.0 | 0.00 | 0.00 | 0.00 | 18 | 1015.7 |
| 20260904220217 | 84 | 197 | 12.0 | 20.0 | 0.00 | 0.00 | 0.00 | 18 | 1015.9 |
| 20260904215217 | 84 | 186 | 15.0 | 27.0 | 0.00 | 0.00 | 0.00 | 18 | 1016.1 |